Year,Month,Day,Hour,Minute,Value (Times are PST for temperature in C)
2020,06,11,00,00,12.90
2020,06,11,00,01,12.90
2020,06,11,00,02,12.90
2020,06,11,00,03,13.00
2020,06,11,00,04,13.10
2020,06,11,00,05,13.20
2020,06,11,00,06,13.20
2020,06,11,00,07,13.30
2020,06,11,00,08,13.30
2020,06,11,00,09,13.30
2020,06,11,00,10,13.40
2020,06,11,00,11,13.40
2020,06,11,00,12,13.50
2020,06,11,00,13,13.50
2020,06,11,00,14,13.50
2020,06,11,00,15,13.60
2020,06,11,00,16,13.60
2020,06,11,00,17,13.60
2020,06,11,00,18,13.70
2020,06,11,00,19,13.70
2020,06,11,00,20,13.70
2020,06,11,00,21,13.70
2020,06,11,00,22,13.70
2020,06,11,00,23,13.70
2020,06,11,00,24,13.70
2020,06,11,00,25,13.60
2020,06,11,00,26,13.60
2020,06,11,00,27,13.70
2020,06,11,00,28,13.70
2020,06,11,00,29,13.70
2020,06,11,00,30,13.80
2020,06,11,00,31,13.80
2020,06,11,00,32,13.80
2020,06,11,00,33,13.80
2020,06,11,00,34,13.90
2020,06,11,00,35,13.90
2020,06,11,00,36,13.90
2020,06,11,00,37,13.90
2020,06,11,00,38,13.90
2020,06,11,00,39,13.90
2020,06,11,00,40,13.90
2020,06,11,00,41,13.90
2020,06,11,00,42,13.90
2020,06,11,00,43,13.80
2020,06,11,00,44,13.80
2020,06,11,00,45,13.80
2020,06,11,00,46,13.70
2020,06,11,00,47,13.70
2020,06,11,00,48,13.70
2020,06,11,00,49,13.70
2020,06,11,00,50,13.60
2020,06,11,00,51,13.60
2020,06,11,00,52,13.50
2020,06,11,00,53,13.50
2020,06,11,00,54,13.40
2020,06,11,00,55,13.30
2020,06,11,00,56,13.30
2020,06,11,00,57,13.20
2020,06,11,00,58,13.10
2020,06,11,00,59,13.10
2020,06,11,01,00,13.10
2020,06,11,01,01,13.00
2020,06,11,01,02,13.00
2020,06,11,01,03,12.90
2020,06,11,01,04,12.90
2020,06,11,01,05,12.90
2020,06,11,01,06,12.80
2020,06,11,01,07,12.80
2020,06,11,01,08,12.80
2020,06,11,01,09,12.80
2020,06,11,01,10,12.70
2020,06,11,01,11,12.70
2020,06,11,01,12,12.70
2020,06,11,01,13,12.70
2020,06,11,01,14,12.70
2020,06,11,01,15,12.70
2020,06,11,01,16,12.60
2020,06,11,01,17,12.60
2020,06,11,01,18,12.60
2020,06,11,01,19,12.60
2020,06,11,01,20,12.50
2020,06,11,01,21,12.50
2020,06,11,01,22,12.40
2020,06,11,01,23,12.40
2020,06,11,01,24,12.30
2020,06,11,01,25,12.30
2020,06,11,01,26,12.30
2020,06,11,01,27,12.30
2020,06,11,01,28,12.20
2020,06,11,01,29,12.20
2020,06,11,01,30,12.20
2020,06,11,01,31,12.20
2020,06,11,01,32,12.20
2020,06,11,01,33,12.20
2020,06,11,01,34,12.20
2020,06,11,01,35,12.20
2020,06,11,01,36,12.20
2020,06,11,01,37,12.20
2020,06,11,01,38,12.20
2020,06,11,01,39,12.20
2020,06,11,01,40,12.20
2020,06,11,01,41,12.20
2020,06,11,01,42,12.20
2020,06,11,01,43,12.20
2020,06,11,01,44,12.20
2020,06,11,01,45,12.20
2020,06,11,01,46,12.20
2020,06,11,01,47,12.20
2020,06,11,01,48,12.20
2020,06,11,01,49,12.20
2020,06,11,01,50,12.20
2020,06,11,01,51,12.20
2020,06,11,01,52,12.20
2020,06,11,01,53,12.20
2020,06,11,01,54,12.20
2020,06,11,01,55,12.20
2020,06,11,01,56,12.20
2020,06,11,01,57,12.20
2020,06,11,01,58,12.20
2020,06,11,01,59,12.20
2020,06,11,02,00,12.20
2020,06,11,02,01,12.20
2020,06,11,02,02,12.20
2020,06,11,02,03,12.20
2020,06,11,02,04,12.20
2020,06,11,02,05,12.10
2020,06,11,02,06,12.10
2020,06,11,02,07,12.10
2020,06,11,02,08,12.10
2020,06,11,02,09,12.10
2020,06,11,02,10,12.00
2020,06,11,02,11,11.90
2020,06,11,02,12,11.90
2020,06,11,02,13,11.90
2020,06,11,02,14,11.90
2020,06,11,02,15,11.80
2020,06,11,02,16,11.80
2020,06,11,02,17,11.80
2020,06,11,02,18,11.80
2020,06,11,02,19,11.70
2020,06,11,02,20,11.70
2020,06,11,02,21,11.70
2020,06,11,02,22,11.70
2020,06,11,02,23,11.70
2020,06,11,02,24,11.70
2020,06,11,02,25,11.70
2020,06,11,02,26,11.70
2020,06,11,02,27,11.60
2020,06,11,02,28,11.60
2020,06,11,02,29,11.60
2020,06,11,02,30,11.60
2020,06,11,02,31,11.60
2020,06,11,02,32,11.60
2020,06,11,02,33,11.50
2020,06,11,02,34,11.50
2020,06,11,02,35,11.50
2020,06,11,02,36,11.50
2020,06,11,02,37,11.40
2020,06,11,02,38,11.40
2020,06,11,02,39,11.40
2020,06,11,02,40,11.40
2020,06,11,02,41,11.40
2020,06,11,02,42,11.30
2020,06,11,02,43,11.30
2020,06,11,02,44,11.30
2020,06,11,02,45,11.30
2020,06,11,02,46,11.30
2020,06,11,02,47,11.30
2020,06,11,02,48,11.30
2020,06,11,02,49,11.30
2020,06,11,02,50,11.20
2020,06,11,02,51,11.20
2020,06,11,02,52,11.20
2020,06,11,02,53,11.20
2020,06,11,02,54,11.20
2020,06,11,02,55,11.20
2020,06,11,02,56,11.20
2020,06,11,02,57,11.10
2020,06,11,02,58,11.10
2020,06,11,02,59,11.10
2020,06,11,03,00,11.10
2020,06,11,03,01,11.10
2020,06,11,03,02,11.10
2020,06,11,03,03,11.10
2020,06,11,03,04,11.10
2020,06,11,03,05,11.10
2020,06,11,03,06,11.10
2020,06,11,03,07,11.00
2020,06,11,03,08,11.00
2020,06,11,03,09,11.00
2020,06,11,03,10,11.00
2020,06,11,03,11,10.90
2020,06,11,03,12,10.90
2020,06,11,03,13,10.90
2020,06,11,03,14,10.80
2020,06,11,03,15,10.80
2020,06,11,03,16,10.80
2020,06,11,03,17,10.80
2020,06,11,03,18,10.80
2020,06,11,03,19,10.80
2020,06,11,03,20,10.70
2020,06,11,03,21,10.70
2020,06,11,03,22,10.70
2020,06,11,03,23,10.70
2020,06,11,03,24,10.70
2020,06,11,03,25,10.70
2020,06,11,03,26,10.70
2020,06,11,03,27,10.70
2020,06,11,03,28,10.60
2020,06,11,03,29,10.60
2020,06,11,03,30,10.60
2020,06,11,03,31,10.60
2020,06,11,03,32,10.60
2020,06,11,03,33,10.60
2020,06,11,03,34,10.60
2020,06,11,03,35,10.60
2020,06,11,03,36,10.60
2020,06,11,03,37,10.60
2020,06,11,03,38,10.60
2020,06,11,03,39,10.60
2020,06,11,03,40,10.60
2020,06,11,03,41,10.60
2020,06,11,03,42,10.60
2020,06,11,03,43,10.60
2020,06,11,03,44,10.60
2020,06,11,03,45,10.60
2020,06,11,03,46,10.60
2020,06,11,03,47,10.50
2020,06,11,03,48,10.60
2020,06,11,03,49,10.60
2020,06,11,03,50,10.50
2020,06,11,03,51,10.50
2020,06,11,03,52,10.50
2020,06,11,03,53,10.60
2020,06,11,03,54,10.60
2020,06,11,03,55,10.60
2020,06,11,03,56,10.60
2020,06,11,03,57,10.60
2020,06,11,03,58,10.60
2020,06,11,03,59,10.60
2020,06,11,04,00,10.60
2020,06,11,04,01,10.60
2020,06,11,04,02,10.60
2020,06,11,04,03,10.60
2020,06,11,04,04,10.60
2020,06,11,04,05,10.60
2020,06,11,04,06,10.60
2020,06,11,04,07,10.50
2020,06,11,04,08,10.40
2020,06,11,04,09,10.40
2020,06,11,04,10,10.40
2020,06,11,04,11,10.40
2020,06,11,04,12,10.40
2020,06,11,04,13,10.40
2020,06,11,04,14,10.40
2020,06,11,04,15,10.40
2020,06,11,04,16,10.40
2020,06,11,04,17,10.40
2020,06,11,04,18,10.40
2020,06,11,04,19,10.40
2020,06,11,04,20,10.40
2020,06,11,04,21,10.40
2020,06,11,04,22,10.40
2020,06,11,04,23,10.40
2020,06,11,04,24,10.40
2020,06,11,04,25,10.30
2020,06,11,04,26,10.30
2020,06,11,04,27,10.30
2020,06,11,04,28,10.30
2020,06,11,04,29,10.30
2020,06,11,04,30,10.30
2020,06,11,04,31,10.20
2020,06,11,04,32,10.20
2020,06,11,04,33,10.20
2020,06,11,04,34,10.20
2020,06,11,04,35,10.20
2020,06,11,04,36,10.20
2020,06,11,04,37,10.20
2020,06,11,04,38,10.20
2020,06,11,04,39,10.20
2020,06,11,04,40,10.20
2020,06,11,04,41,10.20
2020,06,11,04,42,10.20
2020,06,11,04,43,10.20
2020,06,11,04,44,10.20
2020,06,11,04,45,10.20
2020,06,11,04,46,10.20
2020,06,11,04,47,10.20
2020,06,11,04,48,10.20
2020,06,11,04,49,10.20
2020,06,11,04,50,10.20
2020,06,11,04,51,10.20
2020,06,11,04,52,10.20
2020,06,11,04,53,10.20
2020,06,11,04,54,10.20
2020,06,11,04,55,10.20
2020,06,11,04,56,10.30
2020,06,11,04,57,10.30
2020,06,11,04,58,10.30
2020,06,11,04,59,10.30
2020,06,11,05,00,10.30
2020,06,11,05,01,10.30
2020,06,11,05,02,10.40
2020,06,11,05,03,10.40
2020,06,11,05,04,10.40
2020,06,11,05,05,10.40
2020,06,11,05,06,10.40
2020,06,11,05,07,10.40
2020,06,11,05,08,10.40
2020,06,11,05,09,10.40
2020,06,11,05,10,10.40
2020,06,11,05,11,10.40
2020,06,11,05,12,10.40
2020,06,11,05,13,10.40
2020,06,11,05,14,10.50
2020,06,11,05,15,10.50
2020,06,11,05,16,10.50
2020,06,11,05,17,10.50
2020,06,11,05,18,10.50
2020,06,11,05,19,10.50
2020,06,11,05,20,10.50
2020,06,11,05,21,10.50
2020,06,11,05,22,10.50
2020,06,11,05,23,10.50
2020,06,11,05,24,10.50
2020,06,11,05,25,10.50
2020,06,11,05,26,10.50
2020,06,11,05,27,10.50
2020,06,11,05,28,10.50
2020,06,11,05,29,10.50
2020,06,11,05,30,10.60
2020,06,11,05,31,10.60
2020,06,11,05,32,10.60
2020,06,11,05,33,10.60
2020,06,11,05,34,10.60
2020,06,11,05,35,10.60
2020,06,11,05,36,10.60
2020,06,11,05,37,10.60
2020,06,11,05,38,10.60
2020,06,11,05,39,10.60
2020,06,11,05,40,10.60
2020,06,11,05,41,10.60
2020,06,11,05,42,10.60
2020,06,11,05,43,10.60
2020,06,11,05,44,10.60
2020,06,11,05,45,10.70
2020,06,11,05,46,10.70
2020,06,11,05,47,10.60
2020,06,11,05,48,10.60
2020,06,11,05,49,10.60
2020,06,11,05,50,10.60
2020,06,11,05,51,10.70
2020,06,11,05,52,10.60
2020,06,11,05,53,10.70
2020,06,11,05,54,10.70
2020,06,11,05,55,10.70
2020,06,11,05,56,10.60
2020,06,11,05,57,10.70
2020,06,11,05,58,10.70
2020,06,11,05,59,10.70
2020,06,11,06,00,10.70
2020,06,11,06,01,10.70
2020,06,11,06,02,10.70
2020,06,11,06,03,10.60
2020,06,11,06,04,10.60
2020,06,11,06,05,10.60
2020,06,11,06,06,10.60
2020,06,11,06,07,10.60
2020,06,11,06,08,10.60
2020,06,11,06,09,10.60
2020,06,11,06,10,10.70
2020,06,11,06,11,10.60
2020,06,11,06,12,10.70
2020,06,11,06,13,10.70
2020,06,11,06,14,10.70
2020,06,11,06,15,10.70
2020,06,11,06,16,10.70
2020,06,11,06,17,10.70
2020,06,11,06,18,10.70
2020,06,11,06,19,10.70
2020,06,11,06,20,10.70
2020,06,11,06,21,10.70
2020,06,11,06,22,10.70
2020,06,11,06,23,10.70
2020,06,11,06,24,10.70
2020,06,11,06,25,10.70
2020,06,11,06,26,10.70
2020,06,11,06,27,10.70
2020,06,11,06,28,10.70
2020,06,11,06,29,10.70
2020,06,11,06,30,10.70
2020,06,11,06,31,10.70
2020,06,11,06,32,10.70
2020,06,11,06,33,10.70
2020,06,11,06,34,10.70
2020,06,11,06,35,10.80
2020,06,11,06,36,10.80
2020,06,11,06,37,10.80
2020,06,11,06,38,10.80
2020,06,11,06,39,10.80
2020,06,11,06,40,10.80
2020,06,11,06,41,10.80
2020,06,11,06,42,10.80
2020,06,11,06,43,10.90
2020,06,11,06,44,10.90
2020,06,11,06,45,10.80
2020,06,11,06,46,10.80
2020,06,11,06,47,10.90
2020,06,11,06,48,10.90
2020,06,11,06,49,10.90
2020,06,11,06,50,10.90
2020,06,11,06,51,10.90
2020,06,11,06,52,10.90
2020,06,11,06,53,10.90
2020,06,11,06,54,10.90
2020,06,11,06,55,11.00
2020,06,11,06,56,11.00
2020,06,11,06,57,11.00
2020,06,11,06,58,11.10
2020,06,11,06,59,11.10
2020,06,11,07,00,11.10
2020,06,11,07,01,11.10
2020,06,11,07,02,11.10
2020,06,11,07,03,11.10
2020,06,11,07,04,11.10
2020,06,11,07,05,11.10
2020,06,11,07,06,11.10
2020,06,11,07,07,11.20
2020,06,11,07,08,11.20
2020,06,11,07,09,11.20
2020,06,11,07,10,11.20
2020,06,11,07,11,11.20
2020,06,11,07,12,11.30
2020,06,11,07,13,11.30
2020,06,11,07,14,11.30
2020,06,11,07,15,11.30
2020,06,11,07,16,11.30
2020,06,11,07,17,11.40
2020,06,11,07,18,11.40
2020,06,11,07,19,11.40
2020,06,11,07,20,11.40
2020,06,11,07,21,11.40
2020,06,11,07,22,11.40
2020,06,11,07,23,11.50
2020,06,11,07,24,11.50
2020,06,11,07,25,11.50
2020,06,11,07,26,11.60
2020,06,11,07,27,11.60
2020,06,11,07,28,11.60
2020,06,11,07,29,11.60
2020,06,11,07,30,11.70
2020,06,11,07,31,11.70
2020,06,11,07,32,11.70
2020,06,11,07,33,11.70
2020,06,11,07,34,11.80
2020,06,11,07,35,11.80
2020,06,11,07,36,11.90
2020,06,11,07,37,11.90
2020,06,11,07,38,12.00
2020,06,11,07,39,12.00
2020,06,11,07,40,12.00
2020,06,11,07,41,12.10
2020,06,11,07,42,12.10
2020,06,11,07,43,12.10
2020,06,11,07,44,12.20
2020,06,11,07,45,12.20
2020,06,11,07,46,12.20
2020,06,11,07,47,12.30
2020,06,11,07,48,12.30
2020,06,11,07,49,12.30
2020,06,11,07,50,12.30
2020,06,11,07,51,12.30
2020,06,11,07,52,12.30
2020,06,11,07,53,12.30
2020,06,11,07,54,12.30
2020,06,11,07,55,12.30
2020,06,11,07,56,12.40
2020,06,11,07,57,12.40
2020,06,11,07,58,12.50
2020,06,11,07,59,12.50
2020,06,11,08,00,12.60
2020,06,11,08,01,12.60
2020,06,11,08,02,12.60
2020,06,11,08,03,12.60
2020,06,11,08,04,12.60
2020,06,11,08,05,12.70
2020,06,11,08,06,12.70
2020,06,11,08,07,12.70
2020,06,11,08,08,12.80
2020,06,11,08,09,12.80
2020,06,11,08,10,12.90
2020,06,11,08,11,12.90
2020,06,11,08,12,12.90
2020,06,11,08,13,13.00
2020,06,11,08,14,13.00
2020,06,11,08,15,13.00
2020,06,11,08,16,13.10
2020,06,11,08,17,13.10
2020,06,11,08,18,13.10
2020,06,11,08,19,13.20
2020,06,11,08,20,13.20
2020,06,11,08,21,13.30
2020,06,11,08,22,13.30
2020,06,11,08,23,13.30
2020,06,11,08,24,13.40
2020,06,11,08,25,13.40
2020,06,11,08,26,13.50
2020,06,11,08,27,13.50
2020,06,11,08,28,13.60
2020,06,11,08,29,13.60
2020,06,11,08,30,13.70
2020,06,11,08,31,13.80
2020,06,11,08,32,13.80
2020,06,11,08,33,13.90
2020,06,11,08,34,13.90
2020,06,11,08,35,13.80
2020,06,11,08,36,13.80
2020,06,11,08,37,13.90
2020,06,11,08,38,13.90
2020,06,11,08,39,13.90
2020,06,11,08,40,13.90
2020,06,11,08,41,14.00
2020,06,11,08,42,14.00
2020,06,11,08,43,14.00
2020,06,11,08,44,14.00
2020,06,11,08,45,14.10
2020,06,11,08,46,14.10
2020,06,11,08,47,14.20
2020,06,11,08,48,14.30
2020,06,11,08,49,14.30
2020,06,11,08,50,14.40
2020,06,11,08,51,14.40
2020,06,11,08,52,14.40
2020,06,11,08,53,14.40
2020,06,11,08,54,14.40
2020,06,11,08,55,14.50
2020,06,11,08,56,14.50
2020,06,11,08,57,14.50
2020,06,11,08,58,14.50
2020,06,11,08,59,14.50
2020,06,11,09,00,14.50
2020,06,11,09,01,14.50
2020,06,11,09,02,14.60
2020,06,11,09,03,14.60
2020,06,11,09,04,14.60
2020,06,11,09,05,14.60
2020,06,11,09,06,14.70
2020,06,11,09,07,14.70
2020,06,11,09,08,14.70
2020,06,11,09,09,14.70
2020,06,11,09,10,14.80
2020,06,11,09,11,14.80
2020,06,11,09,12,14.80
2020,06,11,09,13,14.90
2020,06,11,09,14,14.90
2020,06,11,09,15,14.90
2020,06,11,09,16,14.90
2020,06,11,09,17,14.90
2020,06,11,09,18,14.90
2020,06,11,09,19,14.90
2020,06,11,09,20,15.00
2020,06,11,09,21,15.00
2020,06,11,09,22,15.10
2020,06,11,09,23,15.00
2020,06,11,09,24,15.00
2020,06,11,09,25,14.90
2020,06,11,09,26,14.90
2020,06,11,09,27,14.90
2020,06,11,09,28,14.90
2020,06,11,09,29,15.00
2020,06,11,09,30,14.90
2020,06,11,09,31,15.00
2020,06,11,09,32,15.00
2020,06,11,09,33,15.00
2020,06,11,09,34,15.00
2020,06,11,09,35,15.10
2020,06,11,09,36,15.10
2020,06,11,09,37,15.10
2020,06,11,09,38,15.20
2020,06,11,09,39,15.20
2020,06,11,09,40,15.20
2020,06,11,09,41,15.20
2020,06,11,09,42,15.30
2020,06,11,09,43,15.30
2020,06,11,09,44,15.30
2020,06,11,09,45,15.30
2020,06,11,09,46,15.30
2020,06,11,09,47,15.30
2020,06,11,09,48,15.40
2020,06,11,09,49,15.50
2020,06,11,09,50,15.50
2020,06,11,09,51,15.50
2020,06,11,09,52,15.60
2020,06,11,09,53,15.70
2020,06,11,09,54,15.70
2020,06,11,09,55,15.70
2020,06,11,09,56,15.70
2020,06,11,09,57,15.70
2020,06,11,09,58,15.70
2020,06,11,09,59,15.70
2020,06,11,10,00,15.70
2020,06,11,10,01,15.70
2020,06,11,10,02,15.80
2020,06,11,10,03,15.90
2020,06,11,10,04,15.90
2020,06,11,10,05,16.00
2020,06,11,10,06,16.00
2020,06,11,10,07,16.00
2020,06,11,10,08,16.10
2020,06,11,10,09,16.00
2020,06,11,10,10,16.10
2020,06,11,10,11,16.10
2020,06,11,10,12,16.20
2020,06,11,10,13,16.20
2020,06,11,10,14,16.20
2020,06,11,10,15,16.20
2020,06,11,10,16,16.10
2020,06,11,10,17,16.00
2020,06,11,10,18,15.90
2020,06,11,10,19,16.00
2020,06,11,10,20,16.00
2020,06,11,10,21,16.00
2020,06,11,10,22,16.10
2020,06,11,10,23,16.10
2020,06,11,10,24,16.20
2020,06,11,10,25,16.30
2020,06,11,10,26,16.30
2020,06,11,10,27,16.40
2020,06,11,10,28,16.40
2020,06,11,10,29,16.50
2020,06,11,10,30,16.60
2020,06,11,10,31,16.70
2020,06,11,10,32,16.80
2020,06,11,10,33,16.90
2020,06,11,10,34,17.00
2020,06,11,10,35,17.10
2020,06,11,10,36,17.10
2020,06,11,10,37,17.20
2020,06,11,10,38,17.20
2020,06,11,10,39,17.30
2020,06,11,10,40,17.30
2020,06,11,10,41,17.30
2020,06,11,10,42,17.30
2020,06,11,10,43,17.30
2020,06,11,10,44,17.30
2020,06,11,10,45,17.30
2020,06,11,10,46,17.20
2020,06,11,10,47,17.20
2020,06,11,10,48,17.20
2020,06,11,10,49,17.20
2020,06,11,10,50,17.20
2020,06,11,10,51,17.10
2020,06,11,10,52,17.10
2020,06,11,10,53,17.10
2020,06,11,10,54,17.10
2020,06,11,10,55,17.10
2020,06,11,10,56,17.10
2020,06,11,10,57,17.00
2020,06,11,10,58,16.90
2020,06,11,10,59,16.80
2020,06,11,11,00,16.70
2020,06,11,11,01,16.60
2020,06,11,11,02,16.60
2020,06,11,11,03,16.60
2020,06,11,11,04,16.60
2020,06,11,11,05,16.70
2020,06,11,11,06,16.80
2020,06,11,11,07,16.80
2020,06,11,11,08,16.80
2020,06,11,11,09,16.80
2020,06,11,11,10,16.70
2020,06,11,11,11,16.60
2020,06,11,11,12,16.50
2020,06,11,11,13,16.40
2020,06,11,11,14,16.30
2020,06,11,11,15,16.30
2020,06,11,11,16,16.30
2020,06,11,11,17,16.30
2020,06,11,11,18,16.30
2020,06,11,11,19,16.40
2020,06,11,11,20,16.40
2020,06,11,11,21,16.40
2020,06,11,11,22,16.40
2020,06,11,11,23,16.40
2020,06,11,11,24,16.40
2020,06,11,11,25,16.50
2020,06,11,11,26,16.50
2020,06,11,11,27,16.50
2020,06,11,11,28,16.60
2020,06,11,11,29,16.60
2020,06,11,11,30,16.60
2020,06,11,11,31,16.70
2020,06,11,11,32,16.80
2020,06,11,11,33,16.90
2020,06,11,11,34,16.90
2020,06,11,11,35,16.90
2020,06,11,11,36,16.90
2020,06,11,11,37,17.00
2020,06,11,11,38,17.00
2020,06,11,11,39,17.00
2020,06,11,11,40,17.00
2020,06,11,11,41,17.10
2020,06,11,11,42,17.20
2020,06,11,11,43,17.30
2020,06,11,11,44,17.30
2020,06,11,11,45,17.20
2020,06,11,11,46,17.30
2020,06,11,11,47,17.30
2020,06,11,11,48,17.30
2020,06,11,11,49,17.20
2020,06,11,11,50,17.10
2020,06,11,11,51,17.20
2020,06,11,11,52,17.20
2020,06,11,11,53,17.10
2020,06,11,11,54,17.00
2020,06,11,11,55,17.00
2020,06,11,11,56,16.90
2020,06,11,11,57,16.90
2020,06,11,11,58,16.80
2020,06,11,11,59,16.90
2020,06,11,12,00,17.10
2020,06,11,12,01,17.10
2020,06,11,12,02,17.10
2020,06,11,12,03,17.10
2020,06,11,12,04,17.20
2020,06,11,12,05,17.20
2020,06,11,12,06,17.10
2020,06,11,12,07,17.10
2020,06,11,12,08,17.10
2020,06,11,12,09,17.00
2020,06,11,12,10,16.90
2020,06,11,12,11,16.90
2020,06,11,12,12,16.80
2020,06,11,12,13,16.70
2020,06,11,12,14,16.70
2020,06,11,12,15,16.60
2020,06,11,12,16,16.50
2020,06,11,12,17,16.50
2020,06,11,12,18,16.40
2020,06,11,12,19,16.40
2020,06,11,12,20,16.40
2020,06,11,12,21,16.50
2020,06,11,12,22,16.60
2020,06,11,12,23,16.70
2020,06,11,12,24,16.80
2020,06,11,12,25,16.90
2020,06,11,12,26,16.90
2020,06,11,12,27,16.90
2020,06,11,12,28,16.90
2020,06,11,12,29,17.00
2020,06,11,12,30,17.00
2020,06,11,12,31,17.00
2020,06,11,12,32,17.00
2020,06,11,12,33,17.10
2020,06,11,12,34,17.10
2020,06,11,12,35,17.20
2020,06,11,12,36,17.10
2020,06,11,12,37,17.10
2020,06,11,12,38,17.10
2020,06,11,12,39,17.10
2020,06,11,12,40,17.10
2020,06,11,12,41,17.10
2020,06,11,12,42,17.00
2020,06,11,12,43,17.00
2020,06,11,12,44,16.90
2020,06,11,12,45,16.80
2020,06,11,12,46,16.60
2020,06,11,12,47,16.50
2020,06,11,12,48,16.40
2020,06,11,12,49,16.30
2020,06,11,12,50,16.20
2020,06,11,12,51,16.20
2020,06,11,12,52,16.20
2020,06,11,12,53,16.20
2020,06,11,12,54,16.20
2020,06,11,12,55,16.30
2020,06,11,12,56,16.30
2020,06,11,12,57,16.30
2020,06,11,12,58,16.30
2020,06,11,12,59,16.30
2020,06,11,13,00,16.30
2020,06,11,13,01,16.30
2020,06,11,13,02,16.40
2020,06,11,13,03,16.30
2020,06,11,13,04,16.30
2020,06,11,13,05,16.30
2020,06,11,13,06,16.30
2020,06,11,13,07,16.20
2020,06,11,13,08,16.20
2020,06,11,13,09,16.10
2020,06,11,13,10,16.00
2020,06,11,13,11,16.00
2020,06,11,13,12,16.00
2020,06,11,13,13,16.20
2020,06,11,13,14,16.30
2020,06,11,13,15,16.40
2020,06,11,13,16,16.50
2020,06,11,13,17,16.60
2020,06,11,13,18,16.60
2020,06,11,13,19,16.60
2020,06,11,13,20,16.60
2020,06,11,13,21,16.70
2020,06,11,13,22,16.80
2020,06,11,13,23,16.80
2020,06,11,13,24,16.80
2020,06,11,13,25,16.80
2020,06,11,13,26,16.80
2020,06,11,13,27,16.90
2020,06,11,13,28,17.00
2020,06,11,13,29,17.00
2020,06,11,13,30,17.00
2020,06,11,13,31,17.00
2020,06,11,13,32,16.90
2020,06,11,13,33,16.80
2020,06,11,13,34,16.80
2020,06,11,13,35,16.90
2020,06,11,13,36,17.00
2020,06,11,13,37,17.10
2020,06,11,13,38,17.10
2020,06,11,13,39,17.20
2020,06,11,13,40,17.30
2020,06,11,13,41,17.30
2020,06,11,13,42,17.30
2020,06,11,13,43,17.30
2020,06,11,13,44,17.30
2020,06,11,13,45,17.40
2020,06,11,13,46,17.40
2020,06,11,13,47,17.30
2020,06,11,13,48,17.10
2020,06,11,13,49,16.90
2020,06,11,13,50,16.80
2020,06,11,13,51,16.80
2020,06,11,13,52,16.70
2020,06,11,13,53,16.60
2020,06,11,13,54,16.60
2020,06,11,13,55,16.60
2020,06,11,13,56,16.60
2020,06,11,13,57,16.70
2020,06,11,13,58,16.60
2020,06,11,13,59,16.60
2020,06,11,14,00,16.60
2020,06,11,14,01,16.60
2020,06,11,14,02,16.60
2020,06,11,14,03,16.60
2020,06,11,14,04,16.60
2020,06,11,14,05,16.50
2020,06,11,14,06,16.50
2020,06,11,14,07,16.50
2020,06,11,14,08,16.50
2020,06,11,14,09,16.50
2020,06,11,14,10,16.60
2020,06,11,14,11,16.80
2020,06,11,14,12,16.80
2020,06,11,14,13,16.90
2020,06,11,14,14,17.00
2020,06,11,14,15,17.20
2020,06,11,14,16,17.40
2020,06,11,14,17,17.50
2020,06,11,14,18,17.60
2020,06,11,14,19,17.70
2020,06,11,14,20,17.80
2020,06,11,14,21,17.80
2020,06,11,14,22,17.70
2020,06,11,14,23,17.70
2020,06,11,14,24,17.70
2020,06,11,14,25,17.60
2020,06,11,14,26,17.50
2020,06,11,14,27,17.40
2020,06,11,14,28,17.40
2020,06,11,14,29,17.30
2020,06,11,14,30,17.30
2020,06,11,14,31,17.20
2020,06,11,14,32,17.10
2020,06,11,14,33,17.20
2020,06,11,14,34,17.10
2020,06,11,14,35,17.10
2020,06,11,14,36,17.00
2020,06,11,14,37,17.00
2020,06,11,14,38,16.90
2020,06,11,14,39,16.90
2020,06,11,14,40,16.90
2020,06,11,14,41,16.90
2020,06,11,14,42,16.90
2020,06,11,14,43,16.90
2020,06,11,14,44,16.90
2020,06,11,14,45,16.90
2020,06,11,14,46,17.00
2020,06,11,14,47,17.10
2020,06,11,14,48,17.20
2020,06,11,14,49,17.30
2020,06,11,14,50,17.50
2020,06,11,14,51,17.60
2020,06,11,14,52,17.60
2020,06,11,14,53,17.60
2020,06,11,14,54,17.50
2020,06,11,14,55,17.50
2020,06,11,14,56,17.40
2020,06,11,14,57,17.30
2020,06,11,14,58,17.30
2020,06,11,14,59,17.20
2020,06,11,15,00,17.20
2020,06,11,15,01,17.20
2020,06,11,15,02,17.20
2020,06,11,15,03,17.10
2020,06,11,15,04,17.10
2020,06,11,15,05,17.00
2020,06,11,15,06,17.00
2020,06,11,15,07,16.90
2020,06,11,15,08,16.80
2020,06,11,15,09,16.80
2020,06,11,15,10,16.80
2020,06,11,15,11,16.80
2020,06,11,15,12,16.80
2020,06,11,15,13,16.80
2020,06,11,15,14,16.90
2020,06,11,15,15,16.90
2020,06,11,15,16,17.00
2020,06,11,15,17,17.00
2020,06,11,15,18,17.00
2020,06,11,15,19,17.10
2020,06,11,15,20,17.10
2020,06,11,15,21,17.20
2020,06,11,15,22,17.20
2020,06,11,15,23,17.30
2020,06,11,15,24,17.40
2020,06,11,15,25,17.50
2020,06,11,15,26,17.70
2020,06,11,15,27,17.80
2020,06,11,15,28,17.90
2020,06,11,15,29,18.00
2020,06,11,15,30,18.10
2020,06,11,15,31,18.10
2020,06,11,15,32,18.10
2020,06,11,15,33,18.10
2020,06,11,15,34,18.10
2020,06,11,15,35,18.10
2020,06,11,15,36,18.20
2020,06,11,15,37,18.20
2020,06,11,15,38,18.20
2020,06,11,15,39,18.30
2020,06,11,15,40,18.30
2020,06,11,15,41,18.40
2020,06,11,15,42,18.50
2020,06,11,15,43,18.60
2020,06,11,15,44,18.60
2020,06,11,15,45,18.70
2020,06,11,15,46,18.80
2020,06,11,15,47,18.80
2020,06,11,15,48,18.80
2020,06,11,15,49,18.80
2020,06,11,15,50,18.90
2020,06,11,15,51,18.90
2020,06,11,15,52,18.90
2020,06,11,15,53,18.90
2020,06,11,15,54,18.90
2020,06,11,15,55,19.00
2020,06,11,15,56,19.10
2020,06,11,15,57,19.20
2020,06,11,15,58,19.20
2020,06,11,15,59,19.20
2020,06,11,16,00,19.20
2020,06,11,16,01,19.10
2020,06,11,16,02,19.10
2020,06,11,16,03,19.00
2020,06,11,16,04,18.90
2020,06,11,16,05,18.90
2020,06,11,16,06,18.90
2020,06,11,16,07,18.90
2020,06,11,16,08,18.90
2020,06,11,16,09,18.90
2020,06,11,16,10,18.90
2020,06,11,16,11,18.90
2020,06,11,16,12,18.80
2020,06,11,16,13,18.80
2020,06,11,16,14,18.80
2020,06,11,16,15,18.80
2020,06,11,16,16,18.80
2020,06,11,16,17,18.80
2020,06,11,16,18,18.80
2020,06,11,16,19,18.70
2020,06,11,16,20,18.60
2020,06,11,16,21,18.60
2020,06,11,16,22,18.50
2020,06,11,16,23,18.50
2020,06,11,16,24,18.40
2020,06,11,16,25,18.40
2020,06,11,16,26,18.40
2020,06,11,16,27,18.30
2020,06,11,16,28,18.20
2020,06,11,16,29,18.10
2020,06,11,16,30,18.00
2020,06,11,16,31,17.90
2020,06,11,16,32,17.80
2020,06,11,16,33,17.80
2020,06,11,16,34,17.70
2020,06,11,16,35,17.60
2020,06,11,16,36,17.60
2020,06,11,16,37,17.50
2020,06,11,16,38,17.50
2020,06,11,16,39,17.50
2020,06,11,16,40,17.40
2020,06,11,16,41,17.40
2020,06,11,16,42,17.30
2020,06,11,16,43,17.30
2020,06,11,16,44,17.30
2020,06,11,16,45,17.20
2020,06,11,16,46,17.20
2020,06,11,16,47,17.20
2020,06,11,16,48,17.20
2020,06,11,16,49,17.10
2020,06,11,16,50,17.10
2020,06,11,16,51,17.10
2020,06,11,16,52,17.20
2020,06,11,16,53,17.20
2020,06,11,16,54,17.30
2020,06,11,16,55,17.40
2020,06,11,16,56,17.50
2020,06,11,16,57,17.70
2020,06,11,16,58,17.80
2020,06,11,16,59,17.90
2020,06,11,17,00,18.00
2020,06,11,17,01,18.10
2020,06,11,17,02,18.20
2020,06,11,17,03,18.20
2020,06,11,17,04,18.20
2020,06,11,17,05,18.20
2020,06,11,17,06,18.30
2020,06,11,17,07,18.30
2020,06,11,17,08,18.30
2020,06,11,17,09,18.30
2020,06,11,17,10,18.30
2020,06,11,17,11,18.30
2020,06,11,17,12,18.30
2020,06,11,17,13,18.30
2020,06,11,17,14,18.20
2020,06,11,17,15,18.20
2020,06,11,17,16,18.30
2020,06,11,17,17,18.30
2020,06,11,17,18,18.30
2020,06,11,17,19,18.30